Retour au catalogue

YZ-1 R/B

ActifMEO
NORAD 41316·ROCKET BODY·🇨🇳 China

Lancé Feb 1, 2016 depuis Xichang Satellite Launch Center

Loading…

Prochains Passages (prochaines 24 heures)

TLE

VieillissantSource: Space-Track

Époque: Aug 30, 2026, 02:57 UTC

1 41316U 16006B   26242.12360775  .00000032  00000-0  00000+0 0  9999
2 41316  56.3369  95.5981 1487166  76.5229 299.7191  1.60145653 61860

Suivez YZ-1 R/B en temps réel avec AllMySat

Download on the App Store